Terug naar catalogus

STARLINK-5906

ActiefCommunicatieVLEO
NORAD 55962·PAYLOAD·🇺🇸 United States

Gelanceerd Mar 17, 2023 vanaf Vandenberg Space Force Base

Loading…

Volgende Passages (komende 24 uur)

TLE

VersSource: CelesTrak SupGP

Epoch: Sep 14, 2026, 20:47 UTC

1 55962C 23037BA  26257.86645833 -.00045986  00000+0 -38538-2 0  2576
2 55962  70.0007 147.6091 0003033 268.8724 197.7330 14.98354765    10

Volg STARLINK-5906 in realtime met AllMySat

Download on the App Store